Dewpoint
55 57 60 62 61 64 64 65 63 63 67 66 66 66 67 68 69 70 70 70 69 68 69 67 66 67 68 65 65 66 68 67 65 65 64 66 68 69 73 71 73 74 74 73 75 73 74 74 73 74 73 74 75 73 71 72 71 70 69 70 67 66 65 63 62 60 63 64 63 60 61 62 61 63 59 59 61 61 61 65 65 67 68 67 68
54 57 59 61 62 64 64 65 65 64 67 66 66 67 67 66 68 69 69 69 68 67 68 68 68 67 65 64 63 64 66 65 65 66 64 65 69 72 73 73 74 76 75 76 75 75 74 72 73 74 72 74 75 74 72 72 71 69 68 68 66 64 65 62 65 58 57 55 57 57 56 59 61 60 58 59 68 73 68 65 67 63 64 65 67
53 55 58 60 62 63 64 65 64 63 65 65 66 66 68 67 69 69 69 68 68 68 69 69 68 68 66 64 63 62 64 65 63 64 67 66 69 71 74 76 76 76 76 75 74 74 74 75 73 73 75 74 76 74 73 72 70 69 67 67 66 66 63 63 64 61 59 59 60 60 57 58 61 58 61 71 67 69 65 61 60 61 62 64 67
53 56 56 59 62 64 65 65 65 63 65 65 65 66 67 69 70 69 69 69 69 70 70 68 69 68 69 66 66 65 64 67 68 68 69 67 67 69 75 76 74 73 73 70 72 75 76 75 73 73 72 74 74 73 74 74 70 68 69 68 68 66 65 65 66 64 60 58 59 59 58 55 60 62 62 67 65 69 66 58 59 61 61 63 67
54 54 56 58 62 64 65 65 64 64 63 64 65 65 64 67 70 70 70 69 70 70 71 70 70 71 69 70 68 68 67 68 67 66 68 68 67 70 72 74 73 72 72 73 72 75 77 76 75 74 74 73 74 72 71 70 70 71 70 72 68 64 65 69 66 65 64 64 62 64 59 55 57 59 53 62 59 68 66 56 60 58 60 64 63
55 54 55 57 61 63 65 65 64 64 63 63 63 64 65 67 69 70 69 69 69 71 73 72 71 71 71 70 69 69 69 68 67 66 66 67 66 67 71 70 69 73 73 74 73 74 74 77 75 75 73 71 70 71 72 70 67 76 70 71 73 71 72 69 68 68 64 67 64 61 65 60 60 63 58 67 68 56 53 54 58 67 68 67 72
54 55 55 55 60 62 64 64 64 64 62 62 63 64 65 67 69 70 70 70 69 71 72 72 71 71 71 68 68 67 67 67 68 67 66 65 67 69 70 70 73 71 72 73 74 75 76 76 77 73 73 73 71 71 69 68 67 67 71 73 71 74 76 72 71 71 71 69 65 64 62 60 62 64 67 63 60 65 62 55 59 68 71 72 69
53 55 56 56 60 61 62 64 62 62 62 62 62 63 66 69 70 70 70 70 70 71 73 73 71 71 71 68 67 66 64 68 70 69 68 67 68 67 69 70 73 72 72 75 76 75 76 75 75 74 74 72 71 71 70 69 70 72 72 73 74 75 73 73 70 70 69 71 67 64 60 60 60 61 59 57 60 60 62 59 60 65 73 73 68
53 53 54 56 58 60 61 62 62 62 61 61 63 64 66 68 70 70 70 71 70 72 73 72 72 71 70 68 68 67 69 69 70 71 70 70 70 69 70 69 72 73 74 73 75 75 74 75 77 75 74 72 71 70 69 68 69 73 74 73 72 73 74 71 73 74 66 74 68 68 62 59 59 59 59 59 61 60 59 59 62 67 65 70 71
53 53 55 56 58 59 60 60 61 61 62 62 63 63 65 68 70 70 70 70 70 72 73 73 72 72 71 70 70 69 69 71 70 71 72 72 72 72 73 73 70 71 73 75 76 75 75 76 74 73 73 71 70 76 73 72 71 72 72 72 75 74 74 69 71 70 67 67 62 67 69 67 62 61 60 59 60 64 60 58 62 61 62 63 66
53 54 55 57 57 59 59 59 60 61 63 63 62 64 65 67 70 70 71 70 71 72 72 72 72 72 71 71 70 70 69 69 68 69 70 71 72 71 72 71 71 70 69 72 74 73 74 75 73 71 71 72 72 73 71 69 70 69 69 72 72 73 73 74 71 69 66 69 64 72 68 59 68 63 64 61 58 64 63 61 65 60 56 59 71
54 53 54 56 59 59 59 60 60 61 62 63 62 64 66 67 70 71 71 71 71 71 72 71 70 71 71 71 71 70 70 68 68 69 69 70 69 68 70 70 70 69 70 70 70 69 73 73 73 72 72 72 72 70 72 73 70 71 71 72 72 72 73 72 71 72 70 69 68 63 67 66 69 62 62 63 66 63 64 65 65 65 60 62 64
54 55 55 55 57 58 59 60 62 63 63 64 63 63 66 68 69 70 72 72 72 71 72 71 70 71 71 71 71 71 70 69 70 69 69 69 68 68 70 71 71 70 69 68 69 70 72 74 73 72 74 74 75 77 77 77 74 74 73 71 73 74 72 73 72 70 69 70 75 68 68 65 62 66 63 62 65 67 70 71 66 64 63 64 64
55 53 54 56 58 58 60 61 62 62 62 63 63 64 66 67 69 69 72 72 72 71 71 71 71 71 71 71 71 71 71 70 69 68 68 68 68 68 67 67 69 68 68 68 68 69 68 72 74 74 76 77 77 76 77 78 77 76 75 73 72 74 73 73 71 68 68 66 66 66 67 67 67 64 67 61 64 70 69 64 67 69 61 61 66
58 55 55 54 56 60 60 61 63 62 62 63 64 66 67 68 69 70 71 71 72 72 71 71 70 71 71 70 70 69 69 69 69 68 68 68 67 67 68 66 66 67 66 69 70 71 70 72 73 74 75 77 76 75 72 74 77 75 74 75 76 74 73 73 70 69 66 67 69 68 67 66 65 65 62 66 73 68 63 62 64 63 63 62 59
57 55 55 56 58 59 60 61 63 62 64 63 64 66 66 68 70 71 71 71 71 72 72 71 71 70 71 71 70 70 70 69 70 71 70 68 68 68 69 70 68 67 68 69 68 70 71 72 74 73 76 76 75 75 75 74 76 75 74 75 75 70 71 73 72 68 67 67 66 67 68 64 64 63 64 65 61 65 66 65 64 66 64 64 60
61 58 55 57 58 59 60 62 62 62 62 63 66 66 68 69 69 71 71 70 70 72 71 71 71 71 71 71 70 69 67 68 67 69 68 68 71 70 68 68 68 70 67 68 69 71 71 71 71 70 72 74 75 75 74 74 76 76 74 75 73 71 73 74 72 71 71 68 68 68 67 67 66 67 65 64 65 71 67 65 64 65 70 67 64
64 62 59 59 58 59 61 61 61 62 62 63 66 65 67 68 69 70 69 70 68 69 68 69 70 70 70 71 71 70 67 67 68 68 68 69 70 71 70 69 68 68 68 66 68 69 71 71 70 71 72 73 73 73 74 73 75 74 72 75 75 75 75 75 74 73 71 71 69 68 68 68 68 67 65 65 68 70 67 65 63 65 70 69 69
60 61 59 59 59 59 63 64 60 62 65 65 63 64 66 68 68 70 69 67 66 66 67 68 69 68 68 69 69 69 68 67 68 69 70 69 68 68 69 69 69 70 70 71 71 68 70 70 72 70 71 73 74 73 74 75 76 75 72 71 74 75 74 73 73 72 70 69 70 69 70 69 69 68 67 64 65 66 66 67 67 66 67 68 69
60 62 61 61 60 61 62 63 61 62 63 62 62 64 63 66 68 69 68 67 68 65 66 67 67 67 66 68 69 70 70 68 68 69 67 68 68 67 68 67 69 69 69 69 70 70 70 69 69 68 67 69 71 70 71 72 74 74 71 68 69 74 75 75 73 70 67 68 71 71 72 72 70 69 68 67 68 68 67 66 67 67 70 70 73
63 64 62 61 62 62 63 63 60 61 63 62 62 62 62 64 65 66 67 65 65 64 65 67 66 67 67 67 66 68 67 67 66 67 67 68 68 69 68 68 69 69 69 69 70 71 71 71 70 70 67 69 72 71 71 72 73 73 73 72 73 74 76 75 75 73 70 69 70 71 72 71 72 70 69 67 66 67 67 66 68 67 66 68 69
61 58 61 60 61 66 65 65 63 60 62 63 63 64 65 65 64 64 65 65 64 64 66 66 66 66 65 65 66 66 67 67 65 65 66 66 67 68 69 69 68 69 69 68 71 70 70 70 70 70 71 68 72 73 70 70 72 73 73 69 69 72 74 73 73 73 72 70 70 71 71 71 71 70 69 68 67 65 64 64 65 65 65 67 69
66 62 60 61 66 66 66 65 66 69 66 65 63 66 66 67 67 69 69 67 66 64 64 67 67 66 67 65 65 65 66 66 65 63 63 64 66 67 69 69 68 68 69 69 68 69 70 71 71 70 71 71 72 72 71 70 71 71 72 70 67 70 71 71 71 72 71 71 70 71 69 70 67 67 67 67 67 67 65 65 65 66 67 68 72
66 69 66 63 65 67 69 71 68 66 66 66 67 68 67 68 69 67 68 69 66 65 68 67 68 67 66 67 68 66 64 64 64 63 63 64 64 65 68 68 67 66 66 69 69 69 70 72 71 71 71 72 72 71 71 71 70 70 71 72 72 71 70 71 71 71 71 72 71 71 70 69 69 70 69 68 68 65 66 66 66 70 70 70 72
67 68 68 70 68 67 68 69 69 67 67 69 69 68 68 68 68 68 69 70 70 69 67 66 67 68 68 66 65 66 66 65 64 62 62 63 64 64 66 67 67 66 66 67 69 70 70 71 70 71 71 72 72 72 72 69 69 69 70 70 71 71 71 71 71 72 72 72 72 72 71 71 71 70 69 67 67 68 69 69 67 68 69 70 71
68 68 66 67 69 69 69 69 69 68 68 71 72 71 69 70 71 70 69 72 72 71 71 71 69 67 71 69 67 66 66 67 66 64 62 62 63 64 65 66 67 68 68 66 66 67 68 70 71 71 71 72 73 72 72 72 70 69 69 70 71 71 71 72 72 71 71 72 71 72 71 71 71 69 69 70 72 73 72 70 71 71 71 72 74
66 68 69 68 69 69 69 70 70 70 70 71 71 72 71 72 72 70 70 72 74 74 73 71 70 68 71 72 70 71 75 72 71 72 70 65 63 63 64 64 65 67 67 66 65 67 69 69 70 71 70 71 71 71 73 73 72 71 70 70 69 70 70 71 71 70 70 70 70 69 71 72 72 73 72 73 74 73 71 73 74 75 74 73 71
67 67 67 68 69 70 69 70 71 72 72 72 72 72 72 72 72 72 72 73 74 74 74 73 71 70 71 73 73 72 75 74 75 75 73 70 71 68 66 66 66 66 66 66 66 65 67 68 69 70 71 72 72 71 73 74 74 72 71 70 70 70 69 69 69 69 69 69 70 71 70 70 72 74 73 74 74 74 74 73 73 73 74 74 73
65 67 67 68 68 69 69 70 71 71 71 72 72 73 74 74 74 74 74 74 75 75 75 74 74 72 73 74 75 76 76 76 75 75 75 73 71 70 70 72 72 66 65 66 67 66 66 66 68 69 70 70 68 68 69 71 75 75 73 71 70 70 70 71 71 70 70 72 72 70 69 69 72 73 76 74 73 74 73 75 75 75 74 75 74
66 65 66 67 67 68 68 69 70 70 71 71 72 72 73 74 74 75 75 75 75 75 75 75 74 74 74 75 76 77 77 77 76 76 76 76 75 75 74 74 73 74 68 70 69 68 66 65 65 69 70 68 67 69 74 74 73 74 75 73 71 71 72 74 73 73 71 71 70 70 70 72 74 74 76 77 77 77 77 75 74 74 76 76 76
65 65 66 68 68 68 67 68 68 68 69 70 70 71 71 72 73 73 74 76 76 76 75 75 75 74 74 75 77 77 77 76 76 76 75 75 75 74 74 73 73 73 73 73 70 69 67 65 65 65 66 67 67 73 71 68 70 73 75 74 74 75 76 76 74 72 73 72 71 71 72 71 74 74 74 75 76 74 74 75 76 77 75 76 75
63 65 66 67 68 68 68 68 69 70 69 70 71 71 71 71 72 72 73 73 73 73 73 73 73 73 73 75 77 76 76 76 75 75 75 75 75 75 74 73 73 73 73 73 71 70 69 68 66 65 66 66 72 72 67 68 69 70 74 73 73 74 74 75 74 72 72 72 72 72 72 74 75 74 73 75 74 74 74 74 74 75 76 76 75
63 63 64 65 65 66 67 68 69 69 70 71 70 70 70 71 71 72 72 72 72 73 73 73 73 73 73 74 75 76 75 75 75 75 75 75 74 74 74 74 72 72 73 73 72 71 72 70 69 71 70 72 71 68 66 66 67 68 70 75 71 73 73 75 71 71 72 73 73 74 72 75 76 74 76 74 74 74 73 73 74 75 75 75 71
63 63 64 64 65 66 66 67 67 68 69 70 70 70 70 71 71 71 71 72 72 72 72 72 73 73 73 75 76 75 75 75 74 75 75 74 73 73 73 73 72 73 73 72 72 73 73 72 72 71 70 71 69 65 63 64 65 67 68 71 70 70 70 71 73 72 71 72 74 74 74 75 75 75 75 75 74 74 73 74 75 76 76 76 76
62 63 64 64 64 65 66 66 66 67 67 68 68 69 70 70 70 71 71 71 72 72 72 73 73 73 73 74 76 75 75 74 74 75 74 73 74 73 72 72 73 72 72 72 72 72 72 72 72 72 72 68 67 60 61 62 61 62 65 71 71 71 71 71 72 73 74 74 75 76 76 75 76 75 75 74 73 72 73 73 74 74 74 76 76
62 62 64 64 64 64 65 65 66 66 67 67 68 68 69 70 71 71 71 71 72 72 72 72 73 72 72 72 74 73 73 73 74 74 73 73 73 72 72 72 72 72 72 72 72 72 72 71 73 73 71 70 63 58 60 60 60 61 63 69 72 72 73 72 74 75 75 76 76 77 76 76 75 74 74 73 75 75 73 72 73 73 74 74 73
63 62 63 64 64 64 65 66 66 66 67 67 69 69 69 70 70 70 71 71 71 72 73 73 73 74 74 72 72 71 72 73 74 74 73 73 72 72 72 72 72 73 73 73 74 72 72 72 72 73 72 71 67 60 57 58 58 60 66 69 71 72 71 72 75 75 75 76 77 76 76 75 75 74 73 68 69 74 73 71 72 71 71 73 74
62 63 63 64 64 64 65 65 65 66 66 67 67 68 68 68 68 68 68 68 69 69 70 71 71 71 73 73 73 73 73 72 71 71 72 73 73 73 72 72 72 72 73 73 73 72 71 72 73 72 70 68 64 59 54 54 55 57 63 69 71 73 73 72 74 73 75 75 75 74 74 74 74 73 65 63 66 73 72 72 71 70 70 72 72
62 62 63 63 64 65 65 64 65 65 65 66 66 66 66 66 66 66 66 66 66 67 68 69 70 71 71 72 72 72 71 70 70 72 73 73 72 73 73 74 73 72 72 73 73 72 72 71 71 70 70 68 66 62 54 53 54 55 62 68 71 72 72 73 72 73 73 73 73 73 73 72 72 66 58 58 60 68 72 72 72 72 71 69 72
58 60 61 62 62 61 61 62 63 63 63 63 64 64 64 64 65 65 65 65 65 65 66 67 67 68 68 69 69 70 70 71 70 70 70 70 71 71 71 71 72 72 72 72 71 71 69 69 70 69 68 68 65 60 57 52 52 53 56 68 71 70 71 71 72 72 73 72 72 71 67 58 57 56 54 54 55 58 67 70 71 72 71 72 73
54 58 61 56 55 57 57 59 59 61 60 60 61 61 62 62 62 62 62 63 64 64 64 64 65 66 66 67 67 67 67 68 69 70 69 69 69 69 70 70 70 71 71 70 69 69 68 67 67 67 66 64 64 63 59 52 50 51 52 58 69 69 67 69 71 71 71 72 71 71 68 58 56 55 55 54 54 56 60 67 70 70 70 68 67
54 57 57 53 52 55 56 55 56 56 58 59 59 59 59 59 59 59 61 61 62 63 63 63 63 63 64 65 66 67 67 67 67 67 67 67 68 69 70 69 69 68 66 66 65 65 65 64 63 63 64 63 60 59 61 57 52 50 50 53 58 58 58 66 69 70 70 72 72 71 64 59 55 55 54 53 53 55 58 65 65 54 56 61 71
53 53 52 52 53 53 54 55 53 54 56 59 59 60 59 58 58 58 59 59 59 60 61 61 61 62 63 64 65 66 67 67 67 67 67 67 67 67 67 67 66 66 65 64 64 63 62 62 61 61 62 61 61 59 59 59 57 53 51 52 53 57 56 63 67 68 67 67 67 66 64 61 53 52 51 52 53 55 61 61 52 55 58 61 68
49 50 51 51 53 53 54 54 55 57 57 57 58 58 58 58 59 60 59 59 59 58 58 59 61 62 63 63 63 63 65 66 66 66 66 65 66 66 66 67 67 66 65 64 63 63 61 60 60 59 60 61 61 63 59 60 59 56 54 52 52 53 54 58 64 64 63 62 64 63 61 52 50 47 49 52 54 58 60 53 53 57 60 64 67
48 47 51 51 50 52 52 52 53 55 56 58 58 59 59 59 60 61 61 60 60 60 59 58 58 60 62 62 62 62 63 63 64 65 65 65 65 64 64 64 64 64 64 62 62 62 61 60 60 59 60 61 62 62 61 59 57 56 55 54 54 55 56 56 63 62 61 61 57 53 52 53 53 51 52 53 54 58 55 54 55 58 65 66 67
45 48 49 49 48 49 50 51 52 52 54 59 59 59 61 60 61 62 61 59 57 56 56 57 57 57 57 58 58 58 60 61 59 59 62 63 63 63 63 63 62 62 61 62 62 61 61 60 60 59 59 60 59 58 59 58 56 57 58 57 57 58 62 62 62 63 62 58 55 54 54 54 55 57 63 65 66 66 59 60 60 64 65 65 64
49 49 50 48 49 49 50 50 50 52 53 52 55 60 61 62 62 59 60 61 60 58 57 55 54 54 59 60 60 59 58 58 58 58 58 59 60 59 60 63 63 60 60 61 61 61 61 60 61 61 61 60 59 58 58 58 58 58 58 59 60 61 60 62 63 65 63 62 62 62 61 60 58 61 63 64 64 64 65 65 63 62 63 64 63
55 54 53 52 50 50 51 53 54 55 54 53 53 55 57 58 57 57 58 59 58 55 53 54 53 54 55 56 60 61 60 57 56 55 55 55 58 59 57 56 56 55 59 58 59 59 59 59 59 59 60 60 59 58 57 57 57 57 57 59 60 59 60 62 63 62 63 64 65 66 61 64 64 64 63 65 63 64 62 61 61 62 62 63 63
57 58 58 58 58 57 57 55 54 54 54 56 56 55 56 58 59 60 61 60 59 59 57 53 51 51 52 54 52 54 56 57 54 53 53 53 52 53 53 51 52 52 50 47 53 54 54 54 56 57 59 58 56 54 54 49 51 44 49 52 56 58 56 56 58 52 57 62 65 65 65 64 65 63 61 61 61 62 62 61 61 61 62 63 63
57 57 58 59 59 59 59 59 59 58 56 55 54 56 57 56 59 60 61 60 59 55 50 49 49 48 49 50 50 50 53 53 52 51 52 52 51 46 49 53 51 51 47 43 46 49 50 53 46 48 53 50 48 50 46 41 40 40 41 42 43 43 42 48 51 50 53 59 64 59 58 56 55 56 57 58 59 60 60 59 60 59 59 59 60
58 58 59 59 60 60 59 59 59 59 58 58 56 53 56 56 58 58 58 60 59 54 50 48 50 51 53 50 49 49 52 56 53 49 49 51 50 53 43 44 49 49 45 41 40 41 44 46 56 49 53 48 47 43 40 40 40 40 40 40 40 40 41 42 44 51 62 65 56 55 54 55 55 55 55 55 57 58 58 58 58 58 58 58 58